Tracking 19181 objects as of 17-Jun-2018
HD Live streaming from Space Station
objects crossing your sky now

FENGYUN 1C DEB

Track FENGYUN 1C DEB now!
10-day predictions


NORAD ID: 35213
Int'l Code: 1999-025DPV
Perigee: 516.9 km
Apogee: 755.7 km
Inclination: 98.5 °
Period: 97.3 minutes
Semi major axis: 7007 km
RCS: 0.006 m2 (small)
Launch date: May 10, 1999
Source: People's Republic of China (PRC)
Launch site: Taiyaun Space Center, China (TSC)

Note: This is SATELLITE DEBRIS
aabbcc
Your satellite tracking list
Your tracking list is empty




NASA's NSSDC Master Catalog

Two Line Element Set (TLE):
1 35213U 99025DPV 18168.38817089 +.00001823 +00000-0 +19514-3 0  9994
2 35213 098.5060 325.7846 0170347 135.6694 225.8303 14.80046887519931
Source of the keplerian elements: AFSPC